contact:dominique.lefevre@mio.osupytheas.fr, maurice.libes@osupytheas.fr
Project:EMSO Ligure-ouest http://www.emso-fr.org/EMSO-France
Sensor Aquadopp, line 04 Serial AQD8517 
DOI : "https://doi.org/10.17882/74513; https://doi.org/10.17882/83244" 
Title:EMSO Ligure Ouest : Data ligne ALBATROSS capteur AQUADOPP - deploiement 2021
Id,Date,Profondeur,Latitude,Longitude,X_East,Y_North,Z_Up,Amplitude_X,Amplitude_Y,Amplitude_Z,Batterie,SoundSpeed,Heading,Pitch,Roll,Pressure,Temperature,Speed,Direction
, , m, degrees North, degrees East, m.s-1, m.s-1,m.s-1, 1, 1, 1, Volt, m.s-1, degree, degree, degree, dbar, degree_C, m.s-1, degree
01,2022-02-10T21:30:00,500.0,42.79,6.0312,-0.03,-0.036,-0.003,62.0,56.0,58.0,12.3,1505.9,41.8,0.0,0.6,451.979,13.67,0.046,219.8
01,2022-02-10T22:00:00,500.0,42.79,6.0312,-0.03,-0.034,0.005,61.0,57.0,57.0,12.3,1505.9,46.0,-0.2,0.7,451.924,13.67,0.045,221.4
01,2022-02-10T22:30:00,500.0,42.79,6.0312,-0.022,-0.034,0.013,61.0,58.0,56.0,12.3,1505.9,52.4,-0.2,0.7,451.914,13.67,0.04,212.9
01,2022-02-10T23:00:00,500.0,42.79,6.0312,-0.022,-0.028,0.003,60.0,57.0,56.0,12.3,1505.9,55.2,-0.2,0.7,451.988,13.67,0.035,218.2
01,2022-02-10T23:30:00,500.0,42.79,6.0312,-0.025,-0.018,-0.006,62.0,56.0,56.0,12.3,1505.9,59.6,0.0,0.6,451.962,13.67,0.03,234.2
01,2022-02-11T00:00:00,500.0,42.79,6.0312,-0.02,-0.024,0.002,60.0,57.0,58.0,12.3,1505.9,62.8,-0.2,0.6,451.973,13.67,0.031,219.8
01,2022-02-11T00:30:00,500.0,42.79,6.0312,-0.005,-0.02,0.01,64.0,59.0,58.0,12.3,1505.9,63.3,-0.2,0.6,451.974,13.67,0.02,194.0
01,2022-02-11T01:00:00,500.0,42.79,6.0312,-0.02,-0.033,-0.01,63.0,58.0,57.0,12.3,1506.0,53.1,-0.1,0.6,452.051,13.69,0.038,211.2
01,2022-02-11T01:30:00,500.0,42.79,6.0312,-0.034,-0.006,0.0,73.0,57.0,60.0,12.3,1506.0,59.1,-0.1,0.8,452.018,13.69,0.034,260.0
01,2022-02-11T02:00:00,500.0,42.79,6.0312,-0.008,-0.014,0.002,61.0,55.0,58.0,12.3,1505.9,53.3,-0.2,0.8,452.013,13.66,0.016,209.7
01,2022-02-11T02:30:00,500.0,42.79,6.0312,0.001,-0.006,-0.006,61.0,56.0,56.0,12.3,1505.9,16.3,-0.2,0.6,452.066,13.65,0.006,170.5
01,2022-02-11T03:00:00,500.0,42.79,6.0312,-0.001,-0.017,0.005,63.0,56.0,59.0,12.3,1505.9,151.5,-0.1,0.7,452.061,13.66,0.017,183.4
01,2022-02-11T03:30:00,500.0,42.79,6.0312,0.005,-0.016,0.011,61.0,59.0,58.0,12.3,1505.9,88.4,-0.1,0.6,452.072,13.65,0.016,162.6
01,2022-02-11T04:00:00,500.0,42.79,6.0312,0.003,-0.03,-0.002,62.0,57.0,57.0,12.3,1505.8,347.8,-0.1,0.6,452.097,13.62,0.03,174.3
01,2022-02-11T04:30:00,500.0,42.79,6.0312,0.005,-0.028,0.004,60.0,57.0,57.0,12.3,1505.8,3.6,-0.1,0.8,452.078,13.62,0.028,169.9
01,2022-02-11T05:00:00,500.0,42.79,6.0312,-0.002,-0.026,-0.009,62.0,59.0,58.0,12.3,1505.8,4.0,-0.1,0.7,452.086,13.62,0.026,184.4
01,2022-02-11T05:30:00,500.0,42.79,6.0312,0.009,-0.029,-0.011,61.0,60.0,58.0,12.3,1505.8,350.5,-0.1,0.7,452.1,13.63,0.03,162.8
01,2022-02-11T06:00:00,500.0,42.79,6.0312,0.014,-0.045,-0.001,65.0,57.0,56.0,12.3,1505.8,343.1,-0.2,0.7,452.098,13.63,0.047,162.7
01,2022-02-11T06:30:00,500.0,42.79,6.0312,0.03,-0.035,-0.014,65.0,56.0,59.0,12.3,1505.9,350.4,-0.2,0.6,452.058,13.66,0.046,139.4
01,2022-02-11T07:00:00,500.0,42.79,6.0312,0.028,-0.034,0.0,66.0,57.0,59.0,12.3,1505.9,356.5,-0.1,0.6,452.075,13.65,0.044,140.5
01,2022-02-11T07:30:00,500.0,42.79,6.0312,0.02,-0.041,0.014,62.0,58.0,59.0,12.3,1505.9,0.1,-0.1,0.6,452.057,13.65,0.045,154.0
01,2022-02-11T08:00:00,500.0,42.79,6.0312,0.022,-0.056,0.009,61.0,58.0,58.0,12.3,1505.9,7.0,-0.2,0.7,452.04,13.65,0.06,158.6
01,2022-02-11T08:30:00,500.0,42.79,6.0312,0.022,-0.06,-0.008,64.0,57.0,58.0,12.3,1505.9,17.9,-0.2,0.7,452.063,13.66,0.063,159.9
01,2022-02-11T09:00:00,500.0,42.79,6.0312,0.019,-0.063,0.012,63.0,58.0,57.0,12.3,1505.9,18.1,-0.1,0.7,452.012,13.65,0.065,163.2
01,2022-02-11T09:30:00,500.0,42.79,6.0312,0.02,-0.069,0.011,62.0,58.0,57.0,12.3,1505.8,18.6,0.0,0.6,452.077,13.64,0.071,163.8
01,2022-02-11T10:00:00,500.0,42.79,6.0312,0.013,-0.073,0.0,62.0,58.0,58.0,12.3,1505.8,26.3,-0.1,0.6,452.056,13.63,0.074,169.9
01,2022-02-11T10:30:00,500.0,42.79,6.0312,0.017,-0.077,-0.004,64.0,59.0,59.0,12.3,1505.8,29.9,-0.1,0.7,452.054,13.63,0.078,167.6
01,2022-02-11T11:00:00,500.0,42.79,6.0312,0.008,-0.069,0.012,61.0,59.0,57.0,12.3,1505.8,40.2,0.0,0.7,452.013,13.63,0.069,173.4
01,2022-02-11T11:30:00,500.0,42.79,6.0312,-0.005,-0.069,-0.002,63.0,58.0,59.0,12.3,1505.9,44.7,-0.2,0.6,452.006,13.66,0.069,184.1
01,2022-02-11T12:00:00,500.0,42.79,6.0312,0.0,-0.073,-0.011,61.0,59.0,58.0,12.3,1505.9,46.0,-0.2,0.8,452.01,13.66,0.072,180.0
01,2022-02-11T12:30:00,500.0,42.79,6.0312,-0.013,-0.059,0.003,63.0,59.0,56.0,12.3,1505.9,50.3,-0.1,0.6,452.013,13.67,0.06,192.4
01,2022-02-11T13:00:00,500.0,42.79,6.0312,-0.024,-0.055,0.012,61.0,57.0,59.0,12.3,1505.8,58.5,-0.2,0.7,452.052,13.63,0.06,203.6
01,2022-02-11T13:30:00,500.0,42.79,6.0312,-0.03,-0.044,0.022,64.0,58.0,59.0,12.3,1505.8,65.6,-0.1,0.7,451.997,13.64,0.053,214.3
01,2022-02-11T14:00:00,500.0,42.79,6.0312,-0.031,-0.029,-0.003,63.0,58.0,58.0,12.3,1505.8,77.2,-0.1,0.7,452.047,13.64,0.042,226.9
01,2022-02-11T14:30:00,500.0,42.79,6.0312,-0.023,-0.025,0.006,62.0,59.0,57.0,12.3,1505.9,80.8,-0.1,0.7,452.071,13.65,0.033,222.6
01,2022-02-11T15:00:00,500.0,42.79,6.0312,-0.037,-0.021,0.005,64.0,59.0,57.0,12.3,1505.9,74.9,-0.2,0.7,452.006,13.65,0.042,240.4
01,2022-02-11T15:30:00,500.0,42.79,6.0312,-0.023,-0.014,0.017,64.0,58.0,59.0,12.3,1505.9,71.2,-0.2,0.6,452.057,13.65,0.026,238.7
01,2022-02-11T16:00:00,500.0,42.79,6.0312,-0.03,-0.012,0.009,59.0,56.0,59.0,12.3,1505.9,58.5,-0.2,0.6,452.034,13.65,0.032,248.2
01,2022-02-11T16:30:00,500.0,42.79,6.0312,-0.019,-0.028,0.01,63.0,58.0,57.0,12.3,1505.8,56.9,-0.1,0.6,452.049,13.63,0.033,214.2
01,2022-02-11T17:00:00,500.0,42.79,6.0312,-0.02,-0.02,-0.009,63.0,58.0,57.0,12.3,1505.8,64.6,-0.1,0.7,452.079,13.63,0.028,225.0
01,2022-02-11T17:30:00,500.0,42.79,6.0312,-0.026,-0.016,0.005,64.0,60.0,58.0,12.3,1505.9,30.6,-0.1,0.7,452.007,13.65,0.03,238.4
01,2022-02-11T18:00:00,500.0,42.79,6.0312,-0.023,-0.024,0.004,60.0,59.0,58.0,12.3,1505.9,22.4,-0.2,0.6,452.002,13.65,0.033,223.8
01,2022-02-11T18:30:00,500.0,42.79,6.0312,0.0,-0.004,0.022,60.0,58.0,57.0,12.3,1505.9,33.2,0.0,0.7,452.05,13.65,0.004,180.0
01,2022-02-11T19:00:00,500.0,42.79,6.0312,-0.019,-0.014,0.012,63.0,57.0,55.0,12.3,1505.9,14.9,-0.2,0.6,452.018,13.65,0.023,233.6
01,2022-02-11T19:30:00,500.0,42.79,6.0312,-0.01,-0.007,-0.016,63.0,57.0,57.0,12.3,1505.9,10.2,-0.1,0.7,452.031,13.65,0.012,235.0
01,2022-02-11T20:00:00,500.0,42.79,6.0312,-0.012,-0.027,0.012,63.0,59.0,59.0,12.3,1505.9,11.6,-0.2,0.5,451.974,13.65,0.029,204.0
01,2022-02-11T20:30:00,500.0,42.79,6.0312,0.0,-0.026,-0.013,62.0,56.0,58.0,12.3,1505.9,20.6,-0.2,0.7,451.93,13.65,0.026,180.0
01,2022-02-11T21:00:00,500.0,42.79,6.0312,0.009,-0.019,0.002,60.0,57.0,57.0,12.3,1505.9,24.7,-0.1,0.7,451.934,13.66,0.021,154.7
